Location: Avon School (historical)
(37.7514°N, 90.2201°W)
Time: 08:28:37
(UTC+00:00)

SR - Visible Passes

Search period start: 10 December 2025 00:00
Search period end: 20 December 2025 00:00
Orbit: 577 x 845 km, 66.7° (Epoch: 09 December)

Date Brightness Start Highest point End Pass type
(mag) Time Alt. Az. Time Alt. Az. Time Alt. Az.
10 Dec ? 11:36:24 10° N 11:39:29 18° NE 11:42:41 10° E visible
11 Dec ? 12:22:10 10° NNW 12:26:37 66° ENE 12:31:24 10° SE visible
12 Dec ? 11:27:54 10° N 11:31:45 27° NE 11:35:48 10° ESE visible
13 Dec ? 10:34:45 10° NNE 10:36:38 13° NE 10:38:40 10° ENE visible
13 Dec ? 12:14:13 10° NNW 12:18:43 76° WSW 12:23:33 10° SSE visible
14 Dec ? 11:20:55 18° N 11:23:56 43° ENE 11:28:30 10° SE visible
15 Dec ? 10:28:03 18° NE 10:28:57 19° NE 10:32:20 10° E visible
15 Dec ? 12:07:08 14° NW 12:10:45 45° WSW 12:15:24 10° S visible
16 Dec ? 11:14:21 38° NNW 11:16:03 71° ENE 11:20:54 10° SE visible
17 Dec ? 10:21:38 29° ENE 10:21:38 29° ENE 10:25:22 10° ESE visible
17 Dec ? 12:00:44 20° WNW 12:02:44 28° WSW 12:06:53 10° SSW visible
18 Dec ? 00:43:18 10° SSE 00:43:56 13° SSE 00:43:56 13° SSE visible
18 Dec ? 11:08:04 71° WSW 11:08:07 71° WSW 11:12:59 10° SSE visible
19 Dec ? 01:29:09 10° SW 01:30:31 20° SW 01:30:31 20° SW visible
19 Dec ? 10:15:28 28° ESE 10:15:28 28° ESE 10:18:00 10° SE visible
19 Dec ? 11:54:34 17° WSW 11:54:41 17° WSW 11:57:51 10° SSW visible
